Theta_e
299 293 290 294 295 296 294 292 291 294 298 294 293 293 295 299 299 299 298 297 297 297 298 298 298 297 297 297 298 298 299 301 303 306 307 309 310 312 313 314 315 315 313 311
294 290 297 299 298 295 293 290 290 294 297 293 292 292 296 299 299 300 297 296 296 296 296 297 296 295 295 295 295 296 298 298 300 302 306 307 307 308 310 312 312 313 313 310
292 297 300 297 294 293 292 290 290 290 294 292 291 289 293 299 298 298 297 296 296 295 294 294 294 294 294 294 294 295 295 297 298 300 303 303 304 301 301 302 306 308 311 309
295 298 296 294 293 293 289 295 293 291 288 284 292 282 290 295 293 295 294 293 293 293 294 294 293 293 293 293 294 294 295 295 296 297 297 297 298 297 298 300 300 302 306 306
293 292 291 291 293 295 292 293 290 289 287 286 287 284 288 294 290 292 292 293 292 292 293 292 292 292 293 292 292 293 294 294 294 294 294 294 294 295 296 296 296 296 300 302
294 293 293 294 294 294 293 290 290 289 287 280 287 287 286 288 290 290 292 292 292 292 292 292 293 292 291 291 290 290 291 292 293 293 293 291 290 291 291 292 292 294 295 297
292 292 293 294 290 292 290 287 281 279 278 279 289 285 287 291 293 293 291 290 291 291 290 290 289 289 289 288 289 289 288 288 290 291 291 291 290 290 289 290 290 290 291 293
288 285 292 293 291 290 290 290 283 276 275 279 285 281 288 292 293 292 291 290 289 289 289 289 289 288 288 288 288 287 287 286 287 288 289 289 289 290 290 290 289 289 289 290
287 287 293 293 293 293 288 286 292 283 281 278 283 288 294 292 290 289 288 288 287 287 288 288 289 288 287 287 287 286 285 285 285 286 286 286 286 286 287 288 289 289 289 290
292 285 293 291 292 292 291 292 284 284 277 274 280 281 283 288 288 287 286 286 286 286 286 286 286 287 286 286 286 285 285 284 284 285 285 286 285 285 285 285 284 286 288 288
293 289 287 291 288 287 287 285 287 287 283 276 275 278 288 288 288 285 285 286 285 285 283 286 285 284 285 286 285 284 284 284 283 284 285 285 284 285 284 283 283 284 284 285
293 290 281 285 292 293 289 288 289 282 280 282 282 281 288 286 285 286 285 286 287 286 284 286 287 285 285 284 284 283 284 284 284 283 283 284 284 283 282 282 282 282 283 284
292 285 276 277 283 289 287 288 288 287 285 280 278 278 289 287 286 287 287 288 287 285 283 284 283 284 283 282 283 283 283 283 284 284 282 282 281 281 281 280 280 281 281 282
294 286 279 274 278 284 279 282 285 285 279 278 279 281 287 288 288 288 287 287 284 284 283 281 281 281 282 283 281 281 282 284 283 283 282 280 280 280 280 280 280 279 279 280
289 277 282 284 285 284 281 281 282 280 282 278 280 279 283 286 282 281 282 282 282 283 281 280 280 280 280 281 282 282 281 282 282 281 280 280 281 280 279 279 278 279 278 279
287 274 279 273 280 280 278 279 280 280 280 280 280 279 285 280 281 281 281 281 279 279 281 280 281 281 281 281 281 283 282 281 280 279 278 280 280 280 279 279 279 278 278 277
279 274 268 266 276 275 267 275 277 278 280 280 276 278 277 278 280 278 278 280 279 279 280 281 280 281 281 281 282 281 281 280 277 276 277 277 278 278 279 278 278 278 277 277
278 272 270 264 266 258 274 280 279 277 278 278 277 273 276 276 278 279 280 280 280 281 281 281 281 280 281 281 281 280 279 277 277 276 275 276 277 277 277 277 277 277 277 276
281 278 268 263 261 271 275 277 276 275 274 278 276 277 276 277 277 276 280 281 279 280 281 281 281 281 280 280 278 277 276 276 276 276 276 276 275 274 274 273 274 274 275 275
278 279 272 263 260 258 271 277 279 278 268 273 274 272 274 276 269 272 279 280 280 281 281 280 280 279 278 276 276 275 274 273 273 274 274 273 272 270 269 270 270 271 271 272
264 264 267 269 265 267 275 276 278 264 269 274 275 276 276 273 276 278 280 280 280 279 279 279 277 276 275 275 274 272 272 270 271 270 270 268 268 266 266 266 266 266 266 267
269 264 261 262 259 263 276 275 271 274 279 278 278 278 277 278 279 279 279 279 278 278 277 276 274 274 273 273 271 269 268 270 268 267 265 264 263 263 264 262 262 263 263 263
266 272 266 269 267 277 278 277 280 280 277 279 279 279 279 278 278 278 278 277 277 275 274 274 270 270 271 268 268 266 267 267 265 263 261 261 262 262 262 261 261 261 261 261
274 276 271 270 275 276 279 280 280 280 279 279 279 279 279 278 278 278 277 276 275 273 271 270 267 265 265 265 267 264 265 264 262 260 260 261 261 260 261 262 262 261 261 260
275 275 272 273 276 278 279 280 280 281 281 279 279 279 279 278 277 276 274 272 272 271 269 267 265 265 264 265 264 262 263 262 260 260 260 260 260 259 259 260 260 261 262 263
278 276 273 271 278 277 278 280 280 279 279 279 278 277 275 275 275 273 271 271 269 268 266 264 263 263 262 261 261 261 259 259 259 259 259 259 259 259 259 259 260 265 267 269
Wind_Speed
5 3 7 11 12 12 8 10 11 8 9 9 7 7 9 13 13 13 9 10 16 16 14 15 15 13 13 14 14 14 13 11 6 4 3 2 1 1 1 1 3 5 6 6
3 6 14 9 8 6 7 10 9 7 9 3 8 10 11 18 16 13 7 13 13 13 13 13 13 14 14 14 15 16 15 14 10 5 3 3 3 2 1 1 1 1 3 6
10 7 9 4 6 11 7 8 9 10 8 4 7 9 9 11 4 14 17 14 13 11 9 10 13 13 12 14 14 15 15 13 12 12 5 5 4 4 4 4 3 1 0 2
9 6 3 3 9 6 10 5 4 4 4 4 7 9 4 10 8 15 13 12 9 9 9 11 11 12 12 10 10 12 13 14 13 12 8 8 4 3 2 2 1 3 1 4
2 3 2 4 5 1 1 4 3 3 6 6 5 5 7 9 11 8 9 10 9 8 9 10 9 11 10 9 9 10 12 15 14 13 11 7 7 4 3 3 5 5 2 3
8 1 2 3 2 2 3 4 7 6 2 4 11 7 2 3 7 6 8 8 9 8 8 8 8 7 8 8 8 11 13 13 13 13 13 10 8 8 7 6 4 4 2 2
4 9 4 2 3 4 2 2 4 3 2 7 4 5 4 3 4 13 13 10 8 9 8 7 7 7 8 9 9 9 10 11 9 9 9 10 9 8 7 7 5 6 5 4
4 3 7 5 3 1 4 2 4 6 3 7 5 7 7 7 12 13 12 10 9 8 6 7 8 7 7 7 8 7 9 9 9 9 9 8 8 5 6 7 5 4 4 5
4 4 4 3 2 3 2 2 2 2 1 0 6 8 11 12 11 10 10 9 8 6 6 7 6 5 5 6 7 7 6 6 6 6 6 7 8 10 9 11 9 9 7 6
5 5 5 3 4 4 4 1 1 2 4 6 5 7 9 6 7 9 9 8 6 5 5 4 5 5 5 5 4 5 7 7 6 6 5 5 6 7 8 7 8 9 10 10
4 1 4 6 3 3 1 2 3 3 4 3 7 8 8 7 7 8 7 6 6 5 3 2 3 3 5 4 3 4 5 5 5 5 5 6 6 7 6 6 5 6 6 9
3 3 6 6 9 7 3 5 8 6 12 6 8 9 8 9 8 8 7 5 5 5 3 1 0 4 4 2 3 3 4 4 4 4 5 6 5 5 5 6 6 6 6 6
3 3 2 11 3 5 2 3 3 3 2 9 9 8 6 6 6 4 6 6 6 5 3 1 5 5 4 5 6 6 5 5 4 5 4 5 5 5 5 5 6 7 7 7
4 2 6 8 10 7 5 11 11 4 7 13 17 18 15 13 4 7 10 9 6 6 4 1 2 3 5 4 4 5 6 6 5 6 6 5 5 6 6 6 6 6 7 8
2 5 6 11 12 13 11 13 17 15 17 18 24 22 24 19 6 4 5 6 4 5 6 5 2 1 2 5 5 4 4 6 5 5 6 9 10 8 7 7 6 7 7 7
5 5 2 8 4 9 16 21 18 19 21 22 23 25 13 3 5 3 2 1 1 3 4 5 3 2 1 4 4 4 5 5 3 4 6 8 10 11 12 12 12 10 9 7
0 3 3 8 4 3 8 19 18 15 20 19 20 13 2 3 3 4 5 5 5 3 5 4 5 5 3 1 3 5 5 4 4 4 6 7 8 10 11 10 11 12 13 12
4 5 3 6 5 4 11 2 5 8 8 4 1 4 6 3 4 4 5 7 6 5 5 5 4 2 1 3 4 4 4 3 4 6 7 7 9 10 11 11 13 15 14 15
13 7 4 4 6 8 14 8 7 5 11 1 3 6 5 4 4 6 5 5 1 5 5 3 3 4 4 5 5 5 3 4 5 8 9 9 9 12 13 15 17 17 16 16
7 11 6 2 5 9 2 5 5 4 9 5 7 4 2 3 1 5 4 4 5 5 4 2 3 3 5 5 5 4 6 5 10 10 10 11 11 12 15 16 17 16 16 19
3 1 10 11 9 7 1 6 4 5 11 3 6 5 5 4 7 9 6 6 5 2 5 4 6 5 5 5 5 7 9 9 9 10 11 12 11 13 15 17 15 16 17 18
7 6 5 1 1 9 2 4 7 6 2 5 6 7 7 8 7 6 8 6 1 4 5 6 5 4 5 5 5 9 10 10 10 11 11 12 12 10 11 14 15 15 15 17
3 9 7 9 7 3 6 6 8 4 6 7 7 9 9 8 6 8 6 3 5 5 4 4 3 6 5 3 3 9 11 12 13 13 13 12 13 12 12 13 15 13 13 13
6 7 4 4 7 13 17 11 9 10 9 7 6 8 7 8 7 7 3 2 2 3 3 2 2 3 6 3 5 4 10 11 11 13 14 13 13 14 13 11 11 12 12 13
12 5 7 10 13 17 18 13 15 16 14 10 9 8 9 8 7 4 4 4 2 2 1 2 2 4 7 8 8 6 9 9 12 13 13 13 11 14 14 13 12 12 14 15
16 20 12 10 15 15 14 11 8 8 7 8 8 5 3 4 4 4 3 3 2 1 2 2 3 5 7 6 9 9 6 7 10 12 11 11 12 12 12 13 13 22 29 32
Wind_Direction
204 211 204 229 230 244 287 277 277 282 300 294 294 295 288 275 290 292 280 66 80 74 62 47 36 26 24 17 22 17 12 359 30 29 67 53 351 352 54 97 184 180 166 180
124 228 237 255 277 289 305 301 288 276 283 10 292 295 291 279 263 268 90 69 66 60 52 49 43 35 29 23 24 21 24 22 13 20 25 53 33 27 32 152 132 313 168 167
221 253 308 283 281 276 257 251 276 274 304 296 279 267 267 271 306 92 82 79 68 62 56 46 40 35 29 27 27 25 19 18 23 7 17 19 42 19 12 13 11 279 173 160
228 256 277 262 260 262 269 297 311 342 345 227 55 298 244 270 97 83 77 74 69 63 61 51 42 38 33 25 26 32 30 24 15 15 20 27 32 15 313 209 31 2 257 256
244 135 143 215 228 103 221 12 328 276 260 311 238 256 252 238 112 97 91 90 87 80 70 63 45 41 29 23 31 33 33 33 23 21 26 20 18 353 333 10 49 340 257 202
250 97 232 224 48 170 48 276 251 229 175 277 218 199 309 85 140 135 109 98 96 83 72 66 65 54 41 17 24 33 31 30 26 24 19 19 13 356 351 3 23 333 346 262
166 204 165 95 224 119 142 254 322 310 155 225 54 344 232 74 85 149 130 108 85 75 68 65 54 41 37 25 25 31 31 28 26 29 26 17 5 1 8 9 358 4 359 349
238 285 147 187 227 18 230 201 179 258 261 302 329 246 250 119 84 86 92 92 83 75 67 62 54 44 46 41 36 32 34 22 14 22 26 22 6 7 19 9 1 3 356 337
298 197 153 158 108 138 64 206 60 18 30 209 252 276 292 126 101 104 100 83 76 60 58 67 82 85 64 49 48 54 52 36 27 31 22 19 7 16 23 19 8 353 351 350
31 307 268 90 124 219 182 97 271 72 243 230 263 309 269 29 141 105 107 110 105 88 59 59 33 68 66 52 57 69 65 39 14 22 40 25 14 6 15 15 11 358 344 345
81 190 247 358 209 256 308 272 209 235 210 232 266 261 48 93 108 114 104 104 91 60 11 26 93 71 91 86 44 33 64 75 35 18 1 22 13 13 357 359 360 354 338 340
108 184 257 233 300 294 259 253 254 238 263 237 267 247 102 104 117 130 143 174 183 147 152 230 24 71 37 48 59 44 28 54 52 36 5 356 8 359 342 346 339 337 326 326
140 174 312 324 283 70 142 60 305 337 120 255 270 259 116 138 157 171 207 221 222 189 181 352 23 28 35 15 23 16 5 18 21 7 5 339 331 321 321 324 328 329 319 312
63 245 187 222 248 339 318 298 283 231 269 277 262 285 284 280 222 236 216 218 198 179 162 234 342 352 350 3 350 360 351 358 1 355 348 335 315 299 300 303 295 300 305 307
188 235 209 255 272 290 286 281 279 273 266 259 273 276 278 288 322 57 59 76 139 167 185 172 164 238 279 310 317 321 323 328 325 338 332 331 323 319 306 282 270 272 278 281
206 253 252 277 258 275 275 268 266 267 266 266 268 270 293 74 83 45 59 120 271 351 198 159 181 232 263 280 292 307 284 281 342 325 312 312 310 310 311 312 312 308 297 276
290 119 85 260 166 311 298 249 247 253 256 260 267 274 358 354 51 66 20 335 326 310 307 274 220 220 220 16 4 319 315 335 331 306 290 281 278 281 285 281 285 285 291 293
206 137 155 249 71 233 249 131 314 286 273 272 266 171 176 122 21 355 281 246 251 270 273 283 293 253 55 49 346 327 354 331 297 284 281 280 285 284 290 290 288 290 289 285
225 214 245 192 202 278 299 289 295 288 286 203 189 173 129 36 315 274 266 72 9 281 268 272 18 51 29 6 14 22 346 306 301 298 293 299 309 306 306 302 299 298 296 291
196 211 189 175 201 222 292 100 128 105 270 229 137 136 147 294 285 268 320 320 289 290 278 129 65 46 31 27 21 350 322 314 308 312 318 320 322 314 305 303 303 301 297 292
130 296 218 236 245 268 197 127 139 116 269 173 142 183 226 234 223 246 262 269 263 226 86 52 37 37 27 23 15 330 316 308 315 321 313 311 311 309 302 298 297 296 294 291
161 171 211 191 234 276 168 82 161 211 169 172 212 236 275 267 263 261 261 262 168 87 51 47 28 9 354 5 350 317 309 316 317 313 311 310 303 297 295 292 293 291 290 288
245 200 194 182 200 176 194 210 221 240 204 225 229 257 259 253 249 253 248 234 104 90 64 53 22 324 332 347 331 313 314 319 318 316 310 304 300 296 292 291 290 289 285 282
265 228 212 61 255 260 267 258 259 269 255 253 255 262 251 245 249 240 183 130 90 91 88 77 358 310 303 300 316 292 309 314 312 307 306 307 304 304 297 289 288 288 287 285
222 124 222 241 248 257 264 259 262 265 264 265 256 241 241 219 227 190 150 134 135 99 59 49 321 297 302 317 313 306 306 308 306 305 307 306 304 301 299 290 288 284 279 278
232 237 236 239 241 242 249 248 233 227 234 249 252 227 202 167 175 123 134 113 99 62 29 307 281 294 298 303 302 302 293 295 297 303 305 305 301 298 295 295 290 285 290 293